This demonstration page uses our WeatherBlox Daily Observations layout. Learn more.

Left ArrowRight Arrow

40.92945, -100.16068

Hourly Observations for May 7, 2015

Temp ( °F °C ) Dew Point ( °F °C ) Humidity (%) Winds ( mph kmh ) Pressure ( in mb ) Visibility ( mi km ) Precip ( " mm )
12:15 am 00:15 Clear 58 14.7 57 14 96 96 SE 6 9 29.59 1002 7 11.26538 N/A
12:35 am 00:35 Clear 58 14.3 56 13.6 96 96 N N/A 29.59 1002 7 11.26538 N/A
12:55 am 00:55 Partly Cloudy with Mist and Fog 56 13.5 55 12.7 95 95 N N/A 29.59 1002 2.5 4.02335 N/A
1:15 am 01:15 Partly Cloudy with Mist and Fog 56 13.3 55 12.7 96 96 N N/A 29.59 1002 2.5 4.02335 N/A
1:35 am 01:35 Mostly Cloudy with Fog 55 12.5 53 11.9 96 96 N N/A 29.65 1004 0.5 0.80467 N/A
1:55 am 01:55 Cloudy with Fog 54 12.4 53 11.7 96 96 N N/A 29.65 1004 0.25 0.402335 N/A
2:15 am 02:15 Cloudy with Fog 55 12.5 54 12 97 97 S 3 6 29.65 1004 0.25 0.402335 N/A
2:35 am 02:35 Mostly Cloudy with Mist and Fog 54 12.1 53 11.6 97 97 S 7 11 29.65 1004 0.75 1.207005 N/A
2:55 am 02:55 Mostly Cloudy with Fog 54 12.4 53 11.9 97 97 WSW 5 7 29.65 1004 0.5 0.80467 N/A
3:15 am 03:15 Mostly Cloudy with Mist and Fog 55 12.7 54 12.2 97 97 N N/A 29.59 1002 1.25 2.011675 N/A
3:35 am 03:35 Mostly Cloudy with Mist and Fog 54 12.3 53 11.8 97 97 W 6 9 29.65 1004 1 1.60934 N/A
3:55 am 03:55 Mostly Cloudy with Mist and Fog 55 12.5 54 12 97 97 SW 7 11 29.68 1005 1.5 2.41401 N/A
4:15 am 04:15 Clear 56 13.2 55 12.7 97 97 WSW 6 9 29.68 1005 10 16.0934 N/A
4:35 am 04:35 Clear 55 12.7 54 12.2 97 97 WSW 7 11 29.68 1005 10 16.0934 N/A
4:55 am 04:55 Clear 55 12.8 54 12.3 97 97 W 10 17 29.68 1005 10 16.0934 N/A
5:15 am 05:15 Clear 55 12.7 54 12.2 97 97 W 13 20 29.68 1005 10 16.0934 N/A
5:35 am 05:35 Mostly Cloudy 55 12.9 54 12.3 96 96 W 9 15 29.71 1006 10 16.0934 N/A
5:55 am 05:55 Cloudy 56 13.3 55 12.7 96 96 WSW 7 11 29.71 1006 10 16.0934 N/A
6:15 am 06:15 Cloudy 56 13.4 55 12.7 96 96 WSW 7 11 29.71 1006 10 16.0934 N/A
6:35 am 06:35 Cloudy 56 13.3 55 12.6 96 96 WSW 8 13 29.71 1006 10 16.0934 N/A
6:55 am 06:55 Cloudy 56 13.5 55 12.6 94 94 W 10 17 29.74 1007 10 16.0934 N/A
7:15 am 07:15 Cloudy with Drizzle 56 13.5 55 12.6 94 94 WNW 14 22 29.74 1007 7 11.26538 0.01 0.254
7:35 am 07:35 Mostly Cloudy 56 13.5 55 12.5 94 94 WNW 13 20 29.74 1007 10 16.0934 0.01 0.254
7:55 am 07:55 Partly Cloudy 56 13.5 55 12.5 94 94 WNW 16 26 29.74 1007 10 16.0934 0.01 0.254
8:15 am 08:15 Mostly Cloudy 56 13.5 54 12.2 92 92 WNW 17 28 29.74 1007 10 16.0934 N/A
8:35 am 08:35 Mostly Cloudy 56 13.3 54 12 92 92 NW 18 30 29.74 1007 10 16.0934 N/A
8:55 am 08:55 Partly Cloudy 56 13.4 53 11.6 89 89 WNW 15 24 29.77 1008 10 16.0934 N/A
9:15 am 09:15 Mostly Cloudy 56 13.5 53 11.6 88 88 NW 17 28 29.8 1009 10 16.0934 N/A
9:35 am 09:35 Mostly Cloudy 57 13.8 53 11.7 87 87 NW 14 22 29.8 1009 10 16.0934 N/A
9:55 am 09:55 Mostly Cloudy 57 13.8 53 11.4 86 86 WNW 13 20 29.8 1009 10 16.0934 N/A
10:15 am 10:15 Mostly Cloudy 58 14.2 53 11.6 84 84 NW 17 28 29.8 1009 10 16.0934 N/A
10:35 am 10:35 Partly Cloudy 58 14.6 53 11.5 82 82 NW 20 31 29.77 1008 10 16.0934 N/A
10:55 am 10:55 Mostly Cloudy 59 14.8 53 11.4 80 80 NW 17 28 29.8 1009 10 16.0934 N/A
11:15 am 11:15 Partly Cloudy 58 14.7 52 11.2 80 80 NW 17 28 29.8 1009 10 16.0934 N/A
11:35 am 11:35 Partly Cloudy 59 15 52 11.2 78 78 NW 17 28 29.85 1011 10 16.0934 N/A
11:55 am 11:55 Mostly Cloudy 59 15.2 52 10.9 76 76 WNW 18 30 29.85 1011 10 16.0934 N/A
12:15 pm 12:15 Cloudy 60 15.7 53 11.5 76 76 WNW 17 28 29.83 1010 10 16.0934 N/A
12:35 pm 12:35 Mostly Cloudy 61 16.1 53 11.6 75 75 NW 15 24 29.83 1010 10 16.0934 N/A
12:55 pm 12:55 Cloudy 61 16.3 53 11.7 74 74 NW 15 24 29.85 1011 10 16.0934 N/A
1:15 pm 13:15 Mostly Cloudy 61 16.2 53 11.4 73 73 NW 17 28 29.83 1010 10 16.0934 N/A
1:35 pm 13:35 Mostly Cloudy 62 16.8 53 11.8 73 73 NW 18 30 29.83 1010 10 16.0934 0.03 0.762
1:55 pm 13:55 Partly Cloudy 64 18 53 11.5 66 66 NNW 16 26 29.83 1010 10 16.0934 0.03 0.762
2:15 pm 14:15 Partly Cloudy with Thunderstorms 71 21.7 55 12.5 56 56 NNW 14 22 29.8 1009 10 16.0934 N/A
2:35 pm 14:35 undefined N/A N/A N/A undefined N/A N/A N/A N/A
2:55 pm 14:55 Partly Cloudy 65 18.6 53 11.8 65 65 NNW 16 26 29.8 1009 10 16.0934 N/A
3:15 pm 15:15 Mostly Cloudy 65 18.1 53 11.8 67 67 NW 13 20 29.85 1011 10 16.0934 N/A
3:35 pm 15:35 Cloudy 65 18.3 54 12.1 67 67 NW 13 20 29.85 1011 10 16.0934 N/A
3:55 pm 15:55 Cloudy 65 18.1 53 11.5 66 66 N 10 17 29.85 1011 10 16.0934 N/A
4:15 pm 16:15 Cloudy 64 17.8 52 11.3 66 66 NNW 13 20 29.85 1011 10 16.0934 N/A
4:35 pm 16:35 Cloudy 64 18 53 11.4 66 66 NW 14 22 29.85 1011 10 16.0934 N/A
4:55 pm 16:55 Mostly Cloudy 65 18.3 52 11.2 63 63 NNW 12 19 29.85 1011 10 16.0934 N/A
5:15 pm 17:15 Mostly Cloudy 65 18.1 52 11 63 63 N 13 20 29.85 1011 10 16.0934 N/A
5:35 pm 17:35 Cloudy 64 17.8 52 11 65 65 NNW 12 19 29.85 1011 10 16.0934 N/A
5:55 pm 17:55 Cloudy 64 17.5 51 10.8 65 65 NNW 15 24 29.85 1011 10 16.0934 N/A
6:15 pm 18:15 Cloudy 62 16.7 51 10.5 67 67 N 17 28 29.85 1011 10 16.0934 N/A
6:35 pm 18:35 Cloudy 62 16.5 51 10.3 67 67 N 14 22 29.85 1011 10 16.0934 N/A
6:55 pm 18:55 Cloudy 61 16.1 50 10.2 68 68 N 16 26 29.88 1012 10 16.0934 N/A
7:15 pm 19:15 Mostly Cloudy 59 15 49 9.6 70 70 N 15 24 29.91 1013 10 16.0934 N/A
7:35 pm 19:35 Partly Cloudy 59 15 49 9.5 70 70 N 16 26 29.91 1013 10 16.0934 N/A
7:55 pm 19:55 Mostly Cloudy 57 14.1 49 9.2 73 73 N 14 22 29.94 1014 10 16.0934 N/A
8:15 pm 20:15 Cloudy 56 13.5 48 9 74 74 N 13 20 29.94 1014 10 16.0934 N/A
8:35 pm 20:35 Partly Cloudy 55 12.8 48 8.9 77 77 N 14 22 29.94 1014 10 16.0934 N/A
8:55 pm 20:55 Clear 55 12.5 48 8.8 78 78 N 13 20 29.94 1014 10 16.0934 N/A
9:15 pm 21:15 Mostly Cloudy 55 12.8 48 8.7 76 76 N 14 22 30 1016 10 16.0934 N/A
9:35 pm 21:35 Cloudy 55 12.8 47 8.5 75 75 N 13 20 30 1016 10 16.0934 N/A
9:55 pm 21:55 Cloudy 55 12.8 47 8.4 75 75 N 13 20 30 1016 10 16.0934 N/A
10:15 pm 22:15 Cloudy 55 12.5 47 8.3 76 76 N 10 17 30.03 1017 10 16.0934 N/A
10:35 pm 22:35 Cloudy 54 12.4 47 8.2 76 76 N 10 17 30.03 1017 10 16.0934 N/A
10:55 pm 22:55 Cloudy 54 12.1 47 8.1 77 77 NNW 10 17 30.03 1017 10 16.0934 N/A
11:15 pm 23:15 Cloudy 54 12.1 47 8.2 77 77 N 12 19 30.03 1017 10 16.0934 N/A
11:35 pm 23:35 Cloudy 53 11.8 46 7.8 77 77 NNW 13 20 30.03 1017 10 16.0934 N/A
11:55 pm 23:55 Cloudy 53 11.7 46 7.8 77 77 N 13 20 30.03 1017 10 16.0934 N/A

Powered by AerisWeather